Погода в Генической Горке

Украина / Херсонская область     46°04′37″N   34°49′47″E
темп.,
°C
ветер,
м/с
пор.,
м/с
влажн.,
%
обл.,
%
осадки,
мм/ч
давл.,
гПа
погр.,
м
22 апреля, чт
чт2200:00+9юз57885 0.0 1020136
03:00+9зюз46901 0.0 1021156
06:00+9юз45895 0.0 1021155
09:00+9юз45875 0.0 1022140
12:00+11в33796 0.0 102231
15:00+12юв5677100 0.0 1022111
18:00+11ююв56835 0.0 102264
21:00+11юз33790 0.0 102217
23 апреля, пт
пт2300:00+9юз57850 0.0 102389
03:00+9ююз46834 0.0 1022114
06:00+9ююз4580100 0.0 1022103
09:00+10ю3381100 0.0 102244
12:00+11юв347699 0.0 102137
15:00+12вюв5678100 0.0 101951
18:00+12зюз3374100 0.0 101820
21:00+11зсз3382100 0.0 101942
24 апреля, сб
сб2400:00+10з458783 0.0 101985
03:00+10зюз5690100 0.1 1018121
06:00+10ссз568989 0.4 1019332
09:00+9сз45744 0.4 1020374
12:00+10з66720 0.0 1021227
15:00+11з68621 0.0 1020146
18:00+11з8116616 0.0 1021206
21:00+11ссз5766100 0.0 1022125
25 апреля, вс
вс2500:00+9с5662100 0.0 1023252
03:00+9с445897 0.0 1023231
06:00+8св4456100 0.0 1022240
09:00+9св4460100 0.0 1022455
12:00+9в4458100 0.0 1022620
15:00+9вюв4455100 0.0 1021510
18:00+9юв4451100 0.0 1020424
21:00+9ююв345297 0.0 1021305
26 апреля, пн
пн2600:00+9ююв23531 0.0 1020264
03:00+9всв015096 0.0 1019173
06:00+9юв01504 0.0 1018207
09:00+9юз21524 0.0 1019253
12:00+10ююв225062 0.0 1018234
15:00+11вюв33515 0.0 1017159
18:00+11юв115337 0.0 1017101
21:00+11ююз226775 0.0 101831